FW5474 Weather Reports


time (UTC)temp
F
wind
direction
speed
knots
gust
knots
rain 1hr
in
rain 24hr
in
rain mn
in
humidity
%
barometer
mb
20260906113032 0 330 0.0 0.0 0.00 0.00 0.00 1012.7
20260906111530 0 329 0.0 0.0 0.00 0.00 0.00 1012.6
20260906110023 0 329 0.0 0.0 0.00 0.00 0.00 1012.5
20260906104520 0 329 0.0 0.0 0.00 0.00 0.00 1012.5
20260906103014 0 329 0.0 0.0 0.00 0.00 0.00 1012.2
20260906101509 0 329 0.0 0.0 0.00 0.00 0.00 1012.2
20260906100006 0 329 0.0 0.0 0.00 0.00 0.00 1012.1
20260906094501 0 329 0.0 0.0 0.00 0.00 0.00 1012.0
20260906093059 0 329 0.0 0.0 0.00 0.00 0.00 1011.9
20260906091555 0 329 0.0 0.0 0.00 0.00 0.00 1011.8
20260906090050 0 329 0.0 0.0 0.00 0.00 0.00 1011.8
20260906084546 0 329 0.0 0.0 0.00 0.00 0.00 1011.9
20260906083041 0 329 0.0 0.0 0.00 0.00 0.00 1012.1
20260906081541 0 329 0.0 0.0 0.00 0.00 0.00 1012.0
20260906080034 0 329 0.0 0.0 0.00 0.00 0.00 1012.0
20260906074528 0 329 0.0 0.0 0.00 0.00 0.00 1011.9
20260906073023 0 329 0.0 0.0 0.00 0.00 0.00 1011.9
20260906071518 0 329 0.0 0.0 0.00 0.00 0.00 1012.0
20260906070015 0 329 0.0 0.0 0.00 0.00 0.00 1012.0
20260906064519 0 329 0.0 0.0 0.00 0.00 0.00 1012.1
20260906063004 0 329 0.0 0.0 0.00 0.00 0.00 1012.2
20260906061600 0 329 0.0 0.0 0.00 0.00 0.00 1012.3
20260906060142 0 329 0.0 0.0 0.00 0.00 0.00 1012.6
20260906054551 0 329 0.0 0.0 0.00 0.00 0.00 1012.7
20260906053047 -90 329 0.0 0.0 0.00 0.00 0.00 1012.8
20260906051542 -90 329 0.0 0.0 0.00 0.00 0.00 1012.7
20260906050039 -90 329 0.0 0.0 0.00 0.00 0.00 1012.8
20260906044534 -90 329 0.0 0.0 0.00 0.00 0.00 1012.8
20260906043035 -90 329 0.0 0.0 0.00 0.00 0.00 1012.7
20260906041530 -90 329 0.0 0.0 0.00 0.00 0.00 1012.8
20260906040032 -90 329 0.0 0.0 0.00 0.00 0.00 1012.9
20260906034521 -90 329 0.0 0.0 0.00 0.00 0.00 1013.3
20260906033012 -90 332 0.0 0.0 0.00 0.00 0.00 1013.3
20260906031507 -90 304 0.0 4.3 0.00 0.00 0.00 1013.4
20260906030108 0 338 0.0 6.1 0.00 0.00 0.00 1013.3
20260906024604 -90 274 1.7 5.2 0.00 0.00 0.00 1013.0
20260906023109 0 304 0.0 0.0 0.00 0.00 0.00 1013.1
20260906021550 0 360 0.0 0.0 0.00 0.00 0.00 1013.1
20260906020055 0 255 0.0 0.0 0.00 0.00 0.00 1013.1
20260906014542 0 254 0.0 0.0 0.00 0.00 0.00 1013.2
20260906013039 0 254 0.0 0.0 0.00 0.00 0.00 1013.1
20260906011538 0 255 0.0 0.0 0.00 0.00 0.00 1013.0
20260906010036 0 259 0.0 0.0 0.00 0.00 0.00 1012.7
20260906004534 0 260 0.0 0.0 0.00 0.00 0.00 1012.6
20260906003031 0 284 0.0 0.0 0.00 0.00 0.00 1012.8
20260906001539 0 286 0.0 0.0 0.00 0.00 0.00 1012.6
20260906000030 0 286 0.0 0.0 0.00 0.00 0.00 1012.5
20260905234532 0 286 0.0 0.0 0.00 0.00 0.00 1012.5
20260905233024 0 286 0.0 0.0 0.00 0.00 0.00 1012.4
20260905231532 0 286 0.0 0.0 0.00 0.00 0.00 1012.5
20260905230018 0 286 0.0 0.0 0.00 0.00 0.00 1012.2
20260905224521 0 286 0.0 0.0 0.00 0.01 0.00 1012.3
20260905223013 -90 286 0.0 0.0 0.00 0.01 0.00 1012.3
20260905221508 -90 286 0.0 0.0 0.00 0.01 0.00 1012.5
20260905220003 -90 287 0.0 2.6 0.00 0.19 0.00 1012.7
20260905214606 -90 335 0.0 0.9 0.00 0.19 0.00 1012.6
20260905213056 -90 328 0.0 4.3 0.00 0.19 0.00 1012.5
20260905211552 -90 327 0.0 4.3 0.00 0.19 0.00 1012.4
20260905210103 -90 44 0.9 7.0 0.00 0.19 0.00 1012.3
20260905204545 -90 59 0.0 3.5 0.00 0.21 0.00 1012.2
20260905203040 -90 21 0.9 4.3 0.00 0.21 0.00 1012.1
20260905201537 -90 360 0.9 5.2 0.00 0.21 0.00 1012.2
20260905200032 -90 45 1.7 4.3 0.00 0.21 0.00 1012.3
20260905194526 -90 128 0.0 4.3 0.00 0.21 0.00 1012.6
20260905193021 -90 360 0.9 5.2 0.00 0.21 0.00 1012.7
20260905191516 -90 66 0.0 4.3 0.00 0.21 0.00 1013.1
20260905190025 -90 46 0.0 5.2 0.00 0.21 0.00 1013.3
20260905184510 -90 84 0.9 5.2 0.00 0.21 0.00 1013.4
20260905183007 -90 73 0.9 4.3 0.00 0.21 0.00 1013.5
20260905181559 -90 48 0.0 2.6 0.00 0.21 0.00 1014.0
20260905180112 -90 355 0.0 5.2 0.00 0.21 0.00 1014.2
20260905174553 -90 360 0.0 3.5 0.00 0.21 0.00 1014.4
20260905173109 -90 49 1.7 5.2 0.00 0.21 0.00 1014.5
20260905171553 -90 29 0.0 0.0 0.00 0.21 0.00 1014.7
20260905170041 -90 92 0.0 0.9 0.00 0.21 0.00 1014.9
20260905164539 -90 20 0.0 0.0 0.00 0.21 0.00 1015.0
20260905163031 -90 113 0.0 1.7 0.00 0.21 0.00 1015.1
20260905161527 -90 54 0.0 4.3 0.00 0.21 0.00 1015.4
20260905160034 -90 90 0.0 3.5 0.00 0.21 0.00 1015.5
20260905154518 -90 66 0.9 3.5 0.00 0.21 0.00 1015.8
20260905153013 -90 71 0.0 4.3 0.00 0.21 0.00 1016.2
20260905151510 -90 57 0.9 3.5 0.00 0.21 0.00 1016.3
20260905150005 158 328 0.0 3.5 0.00 0.21 0.00 1 1016.1
20260905144600 158 38 0.0 5.2 0.00 0.21 0.00 1 1016.3
20260905143058 158 91 1.7 6.1 0.00 0.21 0.00 1 1016.2
20260905141551 158 59 0.9 3.5 0.00 0.21 0.00 1 1016.0
20260905140052 158 38 0.0 0.0 0.00 0.21 0.00 1 1016.0
20260905134549 158 36 0.0 0.0 0.00 0.21 0.00 1 1016.2
20260905133038 158 69 0.0 0.0 0.00 0.21 0.00 1 1016.5
20260905131532 158 51 0.0 0.0 0.00 0.21 0.00 1 1016.3
20260905130028 158 125 0.0 0.0 0.00 0.21 0.00 1 1016.2
20260905124524 158 134 0.0 0.0 0.00 0.21 0.00 1 1016.3
20260905123020 158 80 0.0 0.0 0.00 0.21 0.00 1 1016.1
20260905121515 158 74 0.0 0.0 0.00 0.21 0.00 1 1016.0
20260905120023 158 37 0.0 0.0 0.00 0.21 0.00 1 1015.8
20260905114506 -90 36 0.0 0.0 0.00 0.21 0.00 1015.4